Change the Weather History Date:

Wednesday, June 26, 2013

  Actual Average Record
Temperature  
Mean Temperature 79 °F 74 °F  
Max Temperature 89 °F 84 °F 103 °F (1936)
Min Temperature 68 °F 63 °F 46 °F (1926)
Degree Days  
Heating Degree Days 0 0  
Month to date heating degree days 26 19  
Since 1 June heating degree days 26 19  
Since 1 July heating degree days 6271 6315  
Cooling Degree Days 14 9  
Month to date cooling degree days 165 163  
Year to date cooling degree days 242 227  
Since 1 June cooling degree days 165 163  
Growing Degree Days 28 (Base 50)    
Moisture  
Dew Point 70 °F    
Average Humidity 78    
Maximum Humidity 90    
Minimum Humidity 65    
Precipitation  
Precipitation 0.02 in 0.17 in 2.28 in (1932)
Month to date precipitation 2.14 4.44  
Year to date precipitation 25.89 16.97  
Sea Level Pressure  
Sea Level Pressure 29.74 in    
Wind  
Wind Speed 7 mph (SSW)    
Max Wind Speed 22 mph    
Max Gust Speed 28 mph    
Visibility 10 miles    
Events Rain , Thunderstorm    
T = Trace of Precipitation, MM = Missing Value Source: NWS Daily Summary

Daily Weather History Graph

Daily Weather History Graph

Search for Another Location

Airport or City:

Trip Planner

Search our weather history database for the weather conditions in past years. The results will help you decide how hot, cold, wet, or windy it might be!

Date:

Astronomy

Jun. 26, 2013 Rise Set
Actual Time 5:38 AM CDT 8:46 PM CDT
Civil Twilight 5:05 AM CDT 9:20 PM CDT
Nautical Twilight 4:22 AM CDT 10:03 PM CDT
Astronomical Twilight 3:31 AM CDT 10:54 PM CDT
Moon 11:07 PM CDT (6/26) 9:33 AM CDT (6/26)
Length of Visible Light 16h 14m
Length of Day
15h 07m
Waning Gibbous, 85% of the Moon is Illuminated
Jun 26
Waning Gibbous
Jun 29
Last Quarter
Jul 8
New
Jul 15
First Quarter
Jul 22
Full

Hourly Weather History & Observations

Time (CDT) Temp. Heat Index Dew Point Humidity Pressure Visibility Wind Dir Wind Speed Gust Speed Precip Events Conditions
12:53 AM 77.0 °F - 71.1 °F 82% 29.70 in 10.0 mi South 9.2 mph - N/A   Mostly Cloudy
1:53 AM 75.9 °F - 70.0 °F 82% 29.68 in 10.0 mi South 6.9 mph - N/A   Mostly Cloudy
2:53 AM 75.9 °F - 69.1 °F 79% 29.67 in 10.0 mi SSW 10.4 mph - N/A   Partly Cloudy
3:53 AM 75.0 °F - 69.1 °F 82% 29.68 in 10.0 mi SSW 10.4 mph - N/A   Clear
4:53 AM 73.0 °F - 69.1 °F 87% 29.69 in 10.0 mi SSW 6.9 mph - N/A   Clear
5:36 AM 71.6 °F - 66.2 °F 83% 29.74 in 10.0 mi East 6.9 mph - N/A   Mostly Cloudy
5:43 AM 71.6 °F - 64.4 °F 78% 29.74 in 10.0 mi East 9.2 mph - N/A   Overcast
5:53 AM 71.1 °F - 64.9 °F 81% 29.72 in 10.0 mi East 12.7 mph - N/A   Overcast
6:53 AM 69.1 °F - 66.0 °F 90% 29.75 in 10.0 mi East 10.4 mph - 0.00 in Rain Light Rain
7:10 AM 68.0 °F - 66.2 °F 94% 29.77 in 10.0 mi ESE 9.2 mph - 0.00 in Thunderstorm Overcast
7:25 AM 68.0 °F - 66.2 °F 94% 29.76 in 6.0 mi SE 10.4 mph - 0.01 in Rain Rain
7:53 AM 69.1 °F - 66.0 °F 90% 29.75 in 10.0 mi SE 9.2 mph - 0.02 in   Overcast
8:53 AM 71.1 °F - 68.0 °F 90% 29.74 in 10.0 mi SSE 5.8 mph - N/A   Overcast
9:41 AM 75.2 °F - 68.0 °F 78% 29.75 in 10.0 mi South 8.1 mph - N/A   Scattered Clouds
9:53 AM 75.9 °F - 69.1 °F 79% 29.73 in 10.0 mi South 9.2 mph - N/A   Scattered Clouds
10:53 AM 78.1 °F - 69.1 °F 74% 29.74 in 10.0 mi SSE 4.6 mph - N/A   Partly Cloudy
11:15 AM 78.8 °F - 69.8 °F 74% 29.76 in 10.0 mi South 5.8 mph - N/A   Mostly Cloudy
11:53 AM 80.1 °F 83.2 °F 70.0 °F 71% 29.75 in 10.0 mi SE 4.6 mph - N/A   Overcast
12:53 PM 81.0 °F 85.2 °F 72.0 °F 74% 29.74 in 10.0 mi South 8.1 mph - N/A   Mostly Cloudy
1:53 PM 84.0 °F 90.2 °F 73.0 °F 69% 29.74 in 10.0 mi Variable 6.9 mph - N/A   Overcast
2:00 PM 84.2 °F 90.9 °F 73.4 °F 70% 29.76 in 10.0 mi SSW 6.9 mph - N/A   Mostly Cloudy
2:13 PM 84.2 °F 90.9 °F 73.4 °F 70% 29.76 in 10.0 mi SW 6.9 mph - N/A   Scattered Clouds
2:53 PM 86.0 °F 95.1 °F 75.0 °F 70% 29.73 in 10.0 mi West 5.8 mph - N/A   Scattered Clouds
3:53 PM 86.0 °F 93.8 °F 73.9 °F 67% 29.74 in 10.0 mi WNW 9.2 mph - N/A   Clear
4:03 PM 84.2 °F 92.3 °F 75.2 °F 74% 29.76 in 10.0 mi NW 6.9 mph - N/A Thunderstorm Clear
4:13 PM 84.2 °F 90.9 °F 73.4 °F 70% 29.77 in 10.0 mi SW 16.1 mph 27.6 mph N/A Thunderstorm Partly Cloudy
4:44 PM 78.8 °F - 71.6 °F 78% 29.77 in 10.0 mi WNW 5.8 mph - 0.00 in Rain Light Rain
4:53 PM 82.0 °F 86.7 °F 72.0 °F 71% 29.74 in 10.0 mi NW 5.8 mph - 0.00 in   Mostly Cloudy
5:53 PM 87.1 °F 96.3 °F 75.0 °F 67% 29.74 in 10.0 mi NW 5.8 mph - N/A   Clear
6:53 PM 84.9 °F 94.1 °F 75.9 °F 74% 29.75 in 10.0 mi WNW 3.5 mph - N/A   Partly Cloudy
7:53 PM 82.9 °F 87.5 °F 71.1 °F 67% 29.75 in 10.0 mi NW 9.2 mph - N/A   Clear
8:53 PM 78.1 °F - 68.0 °F 71% 29.76 in 10.0 mi WNW 6.9 mph - N/A   Clear
9:53 PM 73.9 °F - 66.9 °F 79% 29.78 in 10.0 mi WNW 5.8 mph - N/A   Clear
10:53 PM 73.0 °F - 66.0 °F 79% 29.81 in 10.0 mi WNW 6.9 mph - N/A   Clear
11:53 PM 70.0 °F - 66.0 °F 87% 29.82 in 10.0 mi West 6.9 mph - N/A   Clear